Temperature
-1 -0 -0 -0 -0 -1 -0 -0 0 1 1 2 2 2 2 2 2 2 2 2 2 2 2 2 2 2 2 2 1 1 1 1 1 1 1 1 1 1 1 1 1 1 1 1
-2 -1 -1 -1 -1 -1 -0 -0 -0 0 1 1 2 2 1 2 2 2 2 2 2 1 2 2 1 1 1 1 1 1 1 1 1 1 1 1 1 0 0 0 0 1 1 1
-1 -2 -1 -1 -1 -1 -1 -1 -1 1 2 1 -0 -0 1 1 1 2 2 2 1 1 1 1 1 1 1 0 0 0 0 0 0 0 0 0 0 -0 -0 -0 -0 0 0 0
-3 -2 -1 1 -1 -1 -1 -1 -1 -0 0 -0 -0 1 1 2 2 2 1 1 1 1 1 1 0 0 -0 -0 -0 -0 -0 -0 -0 -0 -0 -0 -0 -1 -1 -1 -1 -1 -1 -0
-3 -3 -2 -0 -1 -2 -2 -1 -1 -1 -1 -1 -0 -1 0 2 1 1 1 1 1 1 0 0 -0 -0 -1 -1 -1 -1 -1 -1 -1 -1 -1 -1 -1 -1 -1 -1 -1 -1 -1 -1
-4 -3 -2 0 -1 -2 -1 -1 -1 -1 -1 -1 -2 -1 -1 1 0 0 0 0 0 -0 -0 -0 -1 -1 -1 -1 -1 -1 -1 -1 -1 -1 -1 -1 -1 -1 -1 -2 -2 -2 -2 -2
-4 -4 -2 -2 -2 -2 -1 -0 -1 -1 -1 -2 -2 -1 -0 -0 -0 -0 -0 -1 -1 -1 -1 -1 -1 -1 -1 -1 -2 -2 -2 -2 -2 -2 -2 -2 -2 -2 -2 -2 -2 -2 -2 -2
-5 -4 -2 -2 -3 -2 -1 -1 -1 -1 -1 -2 -1 -1 -1 -1 -1 -1 -1 -1 -1 -1 -1 -1 -1 -2 -2 -2 -2 -2 -2 -2 -2 -2 -2 -2 -2 -3 -3 -3 -3 -3 -3 -3
-4 -2 -2 -2 -1 -1 -1 -1 -1 -1 -1 -1 -2 -1 -1 -1 -1 -2 -2 -2 -2 -2 -2 -2 -2 -2 -2 -2 -2 -3 -3 -3 -3 -3 -3 -3 -3 -3 -3 -3 -3 -3 -4 -4
-5 -4 -3 -2 -1 -1 -1 -1 -1 -1 -1 -1 -2 -2 -2 -2 -2 -2 -2 -2 -2 -2 -2 -2 -2 -3 -3 -3 -3 -3 -3 -3 -3 -3 -3 -3 -3 -3 -4 -4 -4 -4 -4 -4
-5 -5 -4 -2 -1 -1 -1 -1 -1 -1 -1 -2 -2 -2 -2 -2 -2 -2 -3 -3 -3 -3 -3 -3 -3 -3 -3 -3 -3 -3 -4 -4 -4 -4 -4 -4 -4 -4 -4 -4 -4 -5 -5 -5
-3 -3 -4 -2 -1 -1 -2 -2 -2 -2 -2 -2 -2 -3 -3 -3 -3 -3 -3 -3 -3 -3 -3 -3 -3 -3 -3 -3 -4 -4 -4 -4 -4 -4 -4 -4 -4 -4 -4 -5 -5 -5 -5 -5
-2 -2 -2 -2 -2 -2 -2 -2 -2 -2 -3 -3 -3 -3 -3 -3 -3 -3 -3 -4 -4 -4 -4 -4 -4 -4 -4 -4 -4 -4 -4 -4 -4 -5 -5 -5 -5 -5 -5 -5 -5 -5 -5 -5
-2 -2 -3 -2 -2 -2 -3 -3 -3 -3 -3 -3 -3 -4 -4 -4 -4 -4 -4 -4 -4 -4 -4 -4 -4 -4 -4 -4 -5 -5 -5 -5 -5 -5 -5 -5 -5 -5 -6 -6 -6 -6 -6 -6
-3 -3 -3 -3 -3 -3 -3 -3 -4 -4 -4 -4 -4 -4 -4 -4 -4 -4 -5 -5 -5 -5 -5 -5 -5 -5 -5 -5 -5 -5 -5 -5 -5 -5 -6 -6 -6 -6 -6 -6 -6 -6 -6 -6
-4 -4 -4 -4 -4 -4 -4 -4 -4 -4 -4 -4 -5 -5 -5 -5 -5 -5 -5 -5 -5 -5 -5 -5 -5 -5 -5 -5 -5 -5 -5 -6 -6 -6 -6 -6 -6 -7 -7 -7 -7 -7 -7 -7
-5 -5 -5 -5 -5 -5 -5 -5 -5 -5 -5 -5 -5 -5 -5 -5 -5 -5 -5 -6 -6 -6 -6 -6 -6 -6 -6 -6 -6 -6 -6 -6 -6 -6 -7 -7 -7 -7 -7 -7 -7 -7 -7 -7
-5 -4 -5 -5 -5 -5 -5 -5 -5 -5 -5 -5 -5 -5 -5 -5 -5 -5 -6 -6 -6 -6 -6 -6 -6 -6 -6 -6 -6 -6 -6 -7 -7 -7 -7 -7 -7 -7 -7 -7 -7 -7 -7 -7
-5 -5 -5 -5 -5 -5 -5 -5 -5 -5 -5 -5 -5 -5 -6 -6 -6 -6 -6 -6 -6 -6 -6 -6 -6 -6 -7 -7 -7 -7 -7 -7 -7 -7 -7 -8 -7 -7 -7 -7 -8 -8 -8 -8
-5 -6 -6 -6 -6 -6 -6 -5 -5 -6 -6 -6 -6 -6 -6 -6 -6 -6 -6 -7 -7 -7 -7 -7 -7 -7 -7 -7 -7 -7 -7 -7 -7 -8 -8 -8 -8 -8 -8 -8 -8 -8 -8 -8
-6 -6 -6 -6 -6 -6 -6 -6 -6 -6 -6 -6 -6 -6 -6 -6 -7 -7 -7 -7 -7 -7 -7 -7 -7 -7 -7 -7 -7 -8 -8 -8 -8 -8 -8 -8 -8 -8 -8 -8 -8 -8 -8 -8
-6 -6 -6 -6 -6 -6 -6 -6 -6 -6 -6 -6 -7 -7 -7 -7 -7 -7 -7 -7 -7 -7 -8 -8 -8 -8 -8 -8 -8 -8 -8 -8 -8 -8 -8 -8 -8 -8 -8 -8 -8 -8 -8 -8
-6 -6 -6 -6 -6 -6 -6 -6 -7 -7 -7 -7 -7 -7 -7 -7 -8 -8 -8 -8 -8 -8 -8 -8 -8 -8 -8 -8 -8 -8 -8 -8 -8 -8 -8 -9 -9 -8 -8 -8 -8 -8 -8 -8
-7 -7 -7 -7 -7 -7 -7 -7 -7 -7 -7 -7 -7 -8 -8 -8 -8 -8 -8 -8 -8 -8 -8 -8 -8 -8 -8 -8 -8 -8 -8 -9 -9 -9 -9 -9 -9 -9 -9 -9 -9 -9 -9 -9
-7 -7 -7 -7 -7 -7 -7 -7 -7 -7 -7 -8 -8 -8 -8 -8 -8 -8 -8 -8 -8 -9 -9 -9 -9 -9 -9 -9 -9 -9 -9 -9 -9 -9 -9 -9 -9 -9 -9 -9 -9 -9 -9 -9
-7 -7 -7 -7 -7 -8 -8 -8 -8 -8 -8 -8 -8 -8 -8 -8 -8 -8 -9 -9 -9 -9 -9 -9 -9 -9 -9 -9 -9 -9 -9 -9 -9 -9 -9 -9 -9 -9 -9 -9 -9 -9 -9 -9
-7 -7 -8 -8 -8 -8 -8 -8 -8 -8 -8 -8 -8 -8 -8 -8 -8 -9 -9 -9 -9 -9 -9 -9 -9 -9 -9 -9 -9 -9 -9 -9 -9 -9 -9 -9 -9 -9 -9 -9 -9 -9 -9 -9
Wind_Speed
6 5 4 7 8 8 10 9 9 11 12 15 10 9 7 6 5 5 6 6 5 5 4 3 3 2 2 2 2 1 2 2 2 2 2 2 1 1 1 1 1 1 1 1
4 4 4 7 10 11 12 10 12 13 16 13 8 5 5 6 6 6 7 7 6 5 4 4 3 3 2 2 2 2 2 3 2 2 2 2 2 2 1 1 1 1 1 1
4 4 4 9 10 11 8 8 9 13 13 6 5 6 7 7 7 8 7 6 5 5 4 4 4 3 3 3 2 2 3 3 2 2 2 3 2 2 2 2 1 1 2 2
1 1 7 8 3 6 8 8 9 9 8 7 7 7 6 6 6 6 5 5 5 4 3 3 2 2 2 2 2 2 2 2 2 3 3 3 2 3 3 2 2 2 2 3
3 4 8 8 3 4 5 8 7 10 9 6 5 4 6 4 3 5 5 4 4 3 2 2 2 2 2 2 2 2 3 3 3 3 3 3 3 3 3 2 2 2 2 2
4 4 7 7 2 2 2 6 4 5 8 5 1 3 6 4 3 3 3 2 2 1 1 2 2 2 2 2 2 3 4 4 3 3 3 4 4 3 2 2 2 2 2 2
6 6 9 6 2 4 3 6 3 3 4 4 4 6 5 4 4 3 2 2 1 1 2 3 2 2 3 3 3 4 3 3 2 2 3 3 3 2 2 2 2 2 2 2
5 6 9 3 4 6 6 2 2 3 4 4 5 4 4 4 3 3 2 1 1 1 1 2 2 2 2 3 3 2 2 2 2 2 2 2 2 2 2 2 2 2 1 2
9 9 5 4 6 5 2 3 4 4 5 5 5 5 5 4 3 3 2 2 1 1 1 2 1 2 2 3 2 1 1 2 2 2 2 2 2 2 2 2 2 2 2 2
6 9 7 7 6 5 4 5 5 5 5 4 5 5 4 4 3 3 2 2 1 1 1 2 1 1 2 2 1 1 1 2 1 1 1 1 1 2 2 2 2 2 3 3
7 8 6 7 7 7 5 4 4 4 4 4 3 4 4 4 4 3 3 2 1 1 2 2 1 1 1 1 1 1 1 1 1 1 1 1 1 2 2 3 4 4 3 3
9 7 6 6 4 4 4 5 5 4 4 3 3 4 4 4 3 3 2 2 1 1 2 2 1 2 2 1 1 1 1 1 1 1 1 1 1 2 3 3 4 5 5 4
7 4 5 6 5 3 4 5 5 4 4 4 3 3 3 3 3 2 2 2 2 2 2 2 1 2 2 1 1 2 2 2 1 1 1 1 1 1 2 2 3 3 4 4
6 4 5 5 5 4 4 3 3 2 2 2 2 2 2 3 3 2 3 2 2 1 1 1 1 3 2 1 1 2 2 2 1 1 1 1 2 2 2 2 2 2 3 4
5 5 5 4 3 3 2 1 1 2 2 2 2 2 2 2 3 3 3 1 1 1 1 1 2 3 2 1 1 2 2 1 1 1 1 1 2 1 1 1 2 2 2 3
3 3 3 4 4 3 2 1 2 3 3 2 2 3 3 3 3 2 2 1 1 2 2 2 3 3 2 1 1 1 2 2 2 1 1 1 1 1 1 1 1 2 2 3
2 3 3 4 4 4 3 3 4 3 3 3 3 3 2 1 2 2 2 2 1 2 3 3 4 3 2 1 2 1 1 2 2 1 1 1 1 1 2 1 2 2 3 4
5 5 5 5 5 4 4 3 3 3 3 3 2 1 1 1 2 3 3 2 2 2 3 3 3 2 2 2 2 1 1 1 1 2 1 1 1 1 1 2 2 3 3 4
3 3 4 4 3 3 3 3 3 3 2 2 1 2 2 3 2 2 2 1 1 3 4 3 3 2 2 2 1 1 1 2 1 1 1 3 2 1 2 2 2 3 3 3
2 2 2 2 2 2 2 2 2 2 2 1 1 1 2 2 2 2 1 2 3 3 3 3 2 2 2 2 2 1 2 2 2 2 2 2 2 2 2 3 3 3 3 3
2 2 2 2 2 2 2 2 1 2 2 1 1 2 2 3 2 1 1 3 4 3 3 3 2 2 2 2 2 1 2 2 2 2 2 2 2 3 3 3 3 3 3 3
2 2 2 2 2 2 2 1 1 1 1 1 1 1 1 2 2 2 3 3 4 4 3 2 2 3 3 2 1 1 2 2 2 2 2 3 3 3 3 4 4 4 4 4
2 2 1 1 1 2 2 2 1 1 1 2 2 2 2 3 2 2 4 3 3 5 3 2 4 4 3 1 0 1 2 2 2 3 3 3 3 3 4 4 4 4 4 4
1 1 1 1 0 1 2 2 2 2 2 2 2 2 2 2 3 2 3 4 5 5 3 4 5 5 2 1 1 1 2 2 3 3 3 3 3 3 4 4 4 4 4 4
1 1 1 1 1 1 2 2 2 2 2 2 2 3 2 2 3 3 3 3 5 4 3 4 5 4 2 1 1 2 2 3 3 3 3 3 3 4 4 4 4 4 4 4
1 2 2 2 2 2 2 1 2 2 2 2 3 3 2 2 2 2 2 3 3 4 3 2 3 3 2 2 2 3 3 3 4 3 3 3 4 4 4 4 4 4 4 4
1 1 1 1 2 1 1 2 2 3 3 2 3 3 3 3 2 2 2 2 2 2 2 2 2 2 2 2 3 3 3 3 3 3 3 3 4 4 4 5 4 4 5 5
Wind_Direction
256 272 245 241 241 217 216 217 225 249 254 268 272 268 269 268 271 278 277 263 244 236 231 220 209 216 221 235 230 207 210 217 227 227 227 220 201 205 205 205 238 232 216 247
276 273 267 269 254 230 233 233 238 257 269 270 277 271 267 264 262 265 267 260 253 242 234 225 214 218 219 238 234 208 217 233 232 224 225 226 218 211 203 212 241 239 232 236
257 293 327 273 239 213 217 220 213 240 255 282 283 271 262 260 259 257 259 252 243 238 230 226 220 216 227 243 231 219 225 234 231 222 225 232 225 217 218 221 223 240 249 249
243 30 245 249 212 203 223 248 236 248 267 269 268 277 276 260 251 258 259 256 255 249 239 240 232 219 218 216 210 226 236 241 239 226 229 230 222 223 224 220 226 237 246 251
177 233 271 287 251 189 214 269 244 244 266 285 303 321 302 273 252 254 259 263 255 234 230 227 224 219 208 214 220 234 243 247 244 233 232 225 226 230 221 215 233 241 238 238
175 208 246 259 243 179 153 279 276 247 264 282 319 293 289 306 298 285 283 264 228 211 219 227 238 210 200 219 228 245 248 251 247 233 225 223 226 225 218 212 227 237 250 245
207 229 260 262 215 131 180 257 300 264 264 257 242 254 286 310 309 297 286 278 251 201 215 235 232 202 217 227 242 254 260 262 254 239 231 225 227 219 206 210 213 226 245 260
184 212 252 224 149 188 226 276 285 278 269 262 274 294 306 308 302 306 306 301 275 203 250 253 217 193 221 245 254 257 261 260 256 252 248 235 209 215 205 197 205 224 242 273
197 218 252 196 213 236 255 268 275 280 282 268 278 288 296 300 297 294 282 284 296 235 276 293 246 192 223 260 253 236 245 258 257 262 249 234 208 206 199 195 208 236 239 260
243 259 259 256 258 264 258 259 273 279 281 272 271 274 288 294 295 291 281 277 258 223 259 294 300 256 228 256 245 202 242 267 262 248 257 245 231 212 209 215 222 235 241 254
252 270 289 271 249 253 266 275 286 295 283 265 258 275 279 285 287 283 278 270 245 230 247 276 300 297 280 255 198 210 240 255 262 248 241 252 254 238 238 233 232 236 239 238
237 238 227 261 266 250 260 276 280 290 299 293 264 264 278 282 283 280 276 274 266 255 254 269 280 294 296 265 185 194 246 259 257 239 239 249 280 310 293 274 268 263 260 261
244 257 249 272 282 258 255 269 276 269 264 282 284 269 274 283 288 288 282 272 256 254 256 266 285 296 296 268 203 204 229 250 256 251 247 259 262 269 297 311 300 285 274 274
245 249 267 262 264 270 262 270 282 287 282 278 278 289 287 291 298 289 276 267 264 261 268 271 285 286 285 254 217 224 235 246 239 231 246 261 260 260 258 270 297 306 302 296
248 236 244 268 283 285 280 280 297 299 308 313 305 294 286 284 286 285 287 290 316 311 294 294 288 284 279 230 215 223 235 236 230 227 239 256 266 264 269 273 283 299 315 313
276 268 254 257 262 267 267 252 255 274 284 288 293 295 290 282 283 289 295 268 214 265 276 283 283 287 275 225 231 247 251 256 258 251 244 257 265 262 266 265 280 293 297 299
227 257 258 265 269 267 254 245 242 251 265 276 283 297 311 313 309 305 300 290 262 267 273 272 277 289 279 235 229 244 248 248 254 264 246 249 257 264 267 262 270 281 286 290
236 240 239 238 245 255 261 254 252 257 259 273 293 306 296 272 267 277 289 308 323 314 301 286 283 283 267 242 226 229 230 238 238 240 247 254 264 265 265 268 270 278 290 294
259 260 266 260 253 242 248 254 258 261 268 268 267 272 274 272 273 284 299 308 294 295 300 297 303 305 277 257 255 215 224 232 242 254 260 269 283 280 272 270 272 274 278 284
280 273 277 282 280 250 253 265 265 271 273 252 257 286 299 297 297 301 301 278 270 272 285 293 294 281 270 265 272 217 220 226 235 252 260 257 259 265 269 270 271 273 272 272
280 279 282 287 298 298 276 264 256 273 287 262 238 254 274 293 302 296 286 287 293 292 298 301 309 282 271 271 269 208 218 228 236 244 252 259 263 266 266 268 271 273 272 269
267 266 274 282 292 307 313 308 268 264 288 288 282 281 292 303 311 308 280 265 286 302 313 294 285 285 292 296 197 218 223 231 240 246 249 254 258 263 264 265 268 269 269 266
275 269 275 279 281 299 323 321 292 263 261 262 264 270 274 278 279 277 289 291 294 300 313 288 294 301 316 29 221 235 242 246 249 251 253 254 257 261 264 265 266 266 266 266
303 309 303 300 341 13 327 321 324 311 284 281 273 264 263 284 295 277 271 294 303 305 303 295 306 316 338 9 302 268 262 260 259 259 259 259 257 259 263 264 265 266 264 265
307 311 321 336 328 295 289 311 325 318 312 307 298 290 278 258 261 284 291 291 295 307 306 300 307 320 335 313 288 275 268 263 261 260 257 262 265 268 269 267 263 265 268 267
296 290 286 276 267 272 283 291 297 299 305 310 312 309 309 303 285 283 288 292 292 303 310 307 310 312 308 291 282 277 273 281 287 279 269 270 270 270 272 273 272 267 265 266
305 298 303 311 310 288 274 277 282 288 286 284 296 303 308 309 306 302 300 301 302 301 300 301 301 297 292 287 283 280 276 274 272 271 271 270 270 270 271 272 276 278 276 273
Height
1505 1502 1503 1501 1501 1503 1503 1500 1500 1490 1486 1475 1474 1473 1472 1471 1470 1469 1468 1468 1468 1468 1469 1469 1469 1470 1470 1471 1471 1471 1471 1471 1471 1472 1472 1473 1473 1473 1473 1474 1474 1474 1474 1475
1505 1502 1502 1499 1495 1495 1494 1493 1491 1486 1480 1471 1471 1470 1469 1468 1467 1466 1465 1465 1465 1464 1465 1465 1466 1467 1467 1467 1468 1468 1468 1468 1468 1468 1469 1469 1469 1470 1470 1470 1470 1471 1471 1471
1504 1504 1499 1496 1486 1487 1487 1484 1483 1480 1471 1469 1469 1468 1466 1465 1464 1463 1462 1462 1462 1462 1462 1463 1463 1464 1464 1464 1464 1464 1464 1464 1464 1464 1465 1465 1466 1466 1466 1467 1467 1467 1467 1468
1507 1506 1502 1480 1478 1478 1478 1476 1475 1471 1468 1467 1466 1464 1463 1462 1461 1460 1460 1460 1459 1459 1459 1460 1460 1460 1461 1461 1461 1460 1460 1460 1461 1461 1461 1461 1462 1462 1463 1463 1463 1463 1464 1464
1509 1507 1495 1480 1476 1477 1478 1474 1469 1468 1466 1465 1463 1462 1459 1459 1459 1458 1458 1457 1457 1457 1457 1457 1457 1457 1457 1457 1457 1457 1457 1457 1457 1457 1457 1457 1458 1458 1459 1459 1460 1460 1460 1460
1507 1503 1495 1475 1473 1472 1475 1473 1465 1464 1463 1463 1462 1464 1459 1456 1456 1455 1455 1454 1454 1454 1454 1454 1454 1454 1454 1453 1453 1453 1453 1453 1454 1453 1453 1454 1454 1455 1455 1456 1456 1456 1457 1457
1503 1501 1486 1473 1471 1472 1477 1469 1463 1461 1460 1460 1460 1459 1457 1455 1453 1453 1452 1452 1451 1451 1451 1451 1451 1451 1450 1450 1450 1450 1450 1450 1450 1450 1450 1450 1451 1451 1452 1452 1453 1453 1453 1453
1498 1498 1484 1469 1470 1470 1466 1462 1460 1459 1458 1457 1456 1455 1454 1452 1451 1450 1450 1449 1449 1448 1448 1448 1447 1447 1446 1446 1446 1446 1446 1447 1447 1447 1447 1447 1448 1448 1449 1449 1449 1449 1449 1449
1482 1475 1466 1465 1463 1462 1461 1460 1458 1457 1456 1455 1454 1452 1451 1450 1449 1448 1448 1447 1447 1446 1445 1445 1444 1444 1443 1443 1443 1443 1443 1444 1444 1444 1444 1444 1444 1444 1445 1445 1445 1445 1446 1446
1475 1466 1462 1461 1460 1459 1459 1457 1456 1455 1454 1452 1451 1450 1448 1447 1446 1446 1445 1445 1444 1443 1443 1442 1442 1441 1441 1441 1440 1440 1440 1441 1441 1441 1441 1441 1441 1442 1442 1442 1442 1442 1443 1443
1469 1462 1459 1456 1456 1455 1455 1454 1453 1451 1451 1450 1448 1447 1446 1445 1444 1443 1443 1442 1442 1441 1440 1440 1440 1439 1439 1438 1438 1438 1438 1438 1438 1438 1438 1438 1438 1439 1439 1439 1439 1440 1440 1440
1460 1455 1456 1452 1452 1452 1451 1450 1449 1448 1447 1446 1446 1444 1443 1442 1441 1441 1440 1439 1439 1438 1438 1438 1437 1437 1437 1436 1436 1436 1435 1435 1435 1436 1435 1435 1435 1435 1436 1437 1437 1437 1438 1438
1452 1451 1451 1449 1449 1448 1447 1447 1446 1445 1444 1443 1442 1442 1441 1440 1439 1438 1438 1437 1436 1436 1435 1435 1435 1435 1435 1434 1434 1434 1433 1433 1433 1433 1433 1433 1433 1433 1432 1433 1434 1435 1435 1435
1448 1448 1447 1446 1445 1445 1444 1443 1443 1442 1441 1440 1440 1439 1439 1437 1436 1436 1435 1434 1434 1433 1433 1433 1433 1432 1432 1432 1432 1431 1431 1431 1431 1431 1431 1431 1431 1430 1430 1430 1430 1431 1432 1432
1444 1445 1444 1442 1442 1441 1441 1440 1439 1438 1438 1437 1437 1436 1436 1435 1434 1433 1432 1432 1431 1431 1431 1431 1430 1430 1430 1430 1429 1429 1429 1429 1428 1428 1429 1429 1429 1428 1428 1428 1428 1428 1428 1428
1440 1440 1440 1439 1438 1438 1437 1437 1436 1435 1435 1434 1434 1434 1433 1432 1431 1431 1430 1430 1429 1429 1429 1429 1428 1428 1427 1427 1427 1427 1427 1427 1426 1426 1426 1426 1426 1426 1425 1425 1425 1425 1425 1425
1437 1436 1436 1435 1435 1434 1434 1434 1434 1433 1433 1432 1432 1431 1431 1430 1429 1429 1428 1428 1428 1427 1427 1427 1426 1426 1425 1425 1425 1424 1424 1424 1424 1424 1423 1423 1423 1423 1423 1423 1422 1422 1422 1422
1435 1434 1433 1432 1431 1431 1431 1431 1431 1431 1430 1430 1430 1430 1429 1428 1427 1427 1426 1426 1426 1425 1425 1425 1424 1424 1423 1423 1422 1422 1422 1422 1421 1421 1421 1421 1420 1420 1420 1420 1420 1419 1419 1419
1432 1431 1431 1430 1429 1429 1429 1428 1429 1429 1429 1428 1428 1427 1427 1426 1426 1425 1424 1424 1423 1422 1422 1422 1422 1421 1421 1421 1420 1420 1419 1419 1419 1419 1418 1418 1418 1418 1418 1417 1417 1417 1416 1416
1430 1429 1429 1428 1427 1427 1427 1427 1427 1427 1427 1427 1426 1425 1425 1424 1424 1423 1422 1422 1421 1421 1421 1420 1420 1419 1419 1418 1418 1417 1417 1417 1416 1416 1416 1415 1415 1415 1415 1414 1414 1414 1413 1413
1428 1427 1427 1426 1426 1425 1425 1425 1425 1425 1425 1425 1424 1423 1422 1422 1422 1421 1420 1419 1419 1419 1418 1418 1417 1417 1416 1416 1415 1415 1414 1414 1414 1413 1413 1412 1412 1412 1412 1411 1411 1411 1410 1410
1426 1425 1425 1424 1424 1424 1424 1424 1424 1424 1423 1423 1422 1422 1421 1420 1420 1419 1419 1418 1417 1417 1416 1416 1415 1415 1414 1413 1412 1412 1411 1411 1410 1410 1410 1409 1409 1409 1409 1408 1408 1408 1407 1407
1424 1424 1423 1423 1423 1423 1423 1423 1422 1422 1422 1421 1421 1420 1419 1419 1418 1417 1416 1416 1415 1415 1414 1413 1413 1412 1412 1411 1410 1409 1409 1408 1408 1407 1407 1407 1406 1406 1406 1405 1405 1405 1404 1404
1423 1423 1422 1422 1422 1422 1421 1421 1421 1420 1420 1419 1419 1418 1418 1417 1416 1415 1414 1414 1413 1412 1411 1411 1410 1410 1409 1408 1407 1407 1406 1406 1405 1405 1404 1404 1403 1403 1403 1402 1402 1401 1401 1400
1422 1422 1421 1421 1420 1420 1420 1419 1419 1419 1418 1417 1417 1416 1415 1415 1414 1413 1412 1411 1410 1410 1409 1408 1408 1407 1406 1406 1405 1404 1404 1403 1402 1402 1401 1401 1401 1400 1400 1399 1399 1398 1397 1397
1421 1420 1420 1420 1419 1419 1418 1418 1417 1416 1416 1415 1414 1413 1413 1412 1411 1410 1410 1409 1408 1407 1407 1406 1405 1405 1404 1403 1403 1402 1401 1400 1400 1399 1398 1398 1398 1397 1397 1396 1395 1395 1394 1393
1419 1419 1418 1418 1418 1417 1417 1416 1415 1414 1414 1413 1412 1411 1411 1410 1409 1408 1407 1407 1406 1405 1404 1404 1403 1402 1401 1401 1400 1399 1398 1398 1397 1396 1396 1395 1394 1394 1393 1393 1392 1391 1390 1389